TimeCDT,TemperatureF,Dew PointF,Humidity,Sea Level PressureIn,VisibilityMPH,Wind Direction,Wind SpeedMPH,Gust SpeedMPH,PrecipitationIn,Events,Conditions,WindDirDegrees,DateUTC
12:15 AM,62.6,50.0,63,30.26,10.0,ESE,3.5,-,N/A,,Clear,120,2011-10-08 05:15:00
12:35 AM,62.6,50.0,63,30.26,10.0,SE,4.6,-,N/A,,Clear,140,2011-10-08 05:35:00
1:15 AM,64.4,51.8,64,30.26,10.0,SE,4.6,-,N/A,,Clear,140,2011-10-08 06:15:00
1:35 AM,64.4,51.8,64,30.26,10.0,SE,6.9,-,N/A,,Clear,140,2011-10-08 06:35:00
1:55 AM,62.6,51.8,68,30.27,10.0,SE,4.6,-,N/A,,Clear,140,2011-10-08 06:55:00
2:15 AM,62.6,50.0,63,30.27,10.0,SE,3.5,-,N/A,,Clear,130,2011-10-08 07:15:00
2:35 AM,62.6,50.0,63,30.26,9.0,Calm,Calm,-,N/A,,Clear,0,2011-10-08 07:35:00
2:55 AM,60.8,48.2,63,30.27,10.0,Calm,Calm,-,N/A,,Clear,0,2011-10-08 07:55:00
3:35 AM,57.2,48.2,72,30.26,10.0,Calm,Calm,-,N/A,,Clear,0,2011-10-08 08:35:00
3:55 AM,55.4,48.2,77,30.27,10.0,ENE,3.5,-,N/A,,Clear,70,2011-10-08 08:55:00
4:15 AM,55.4,48.2,77,30.27,10.0,ENE,3.5,-,N/A,,Clear,70,2011-10-08 09:15:00
4:35 AM,55.4,48.2,77,30.27,10.0,ENE,4.6,-,N/A,,Clear,70,2011-10-08 09:35:00
4:55 AM,55.4,48.2,77,30.28,10.0,ENE,4.6,-,N/A,,Clear,70,2011-10-08 09:55:00
5:15 AM,53.6,46.4,77,30.28,7.0,East,3.5,-,N/A,,Clear,80,2011-10-08 10:15:00
5:35 AM,53.6,46.4,77,30.29,10.0,Calm,Calm,-,N/A,,Clear,0,2011-10-08 10:35:00
6:15 AM,53.6,46.4,77,30.30,10.0,East,3.5,-,N/A,,Clear,90,2011-10-08 11:15:00
6:35 AM,53.6,46.4,77,30.30,10.0,Calm,Calm,-,N/A,,Clear,0,2011-10-08 11:35:00
6:55 AM,53.6,46.4,77,30.30,9.0,East,4.6,-,N/A,,Clear,80,2011-10-08 11:55:00
7:15 AM,53.6,46.4,77,30.31,10.0,East,4.6,-,N/A,,Clear,80,2011-10-08 12:15:00
7:35 AM,55.4,48.2,77,30.32,10.0,East,4.6,-,N/A,,Clear,80,2011-10-08 12:35:00
7:55 AM,57.2,50.0,77,30.32,10.0,East,4.6,-,N/A,,Clear,100,2011-10-08 12:55:00
8:15 AM,60.8,51.8,72,30.32,10.0,ESE,6.9,-,N/A,,Clear,120,2011-10-08 13:15:00
8:35 AM,62.6,51.8,68,30.33,10.0,SE,8.1,-,N/A,,Clear,130,2011-10-08 13:35:00
8:55 AM,64.4,51.8,64,30.34,10.0,SE,12.7,17.3,N/A,,Clear,130,2011-10-08 13:55:00
9:15 AM,68.0,53.6,60,30.34,10.0,SSE,6.9,-,N/A,,Clear,160,2011-10-08 14:15:00
9:35 AM,69.8,53.6,56,30.34,10.0,SSE,12.7,17.3,N/A,,Clear,160,2011-10-08 14:35:00
9:55 AM,69.8,53.6,56,30.34,10.0,SSE,10.4,-,N/A,,Clear,150,2011-10-08 14:55:00
10:15 AM,71.6,55.4,57,30.34,10.0,SE,6.9,-,N/A,,Clear,140,2011-10-08 15:15:00
10:35 AM,73.4,55.4,53,30.33,10.0,SSE,9.2,-,N/A,,Clear,160,2011-10-08 15:35:00
11:15 AM,75.2,57.2,53,30.33,10.0,SSE,13.8,17.3,N/A,,Clear,150,2011-10-08 16:15:00
11:35 AM,77.0,55.4,47,30.32,10.0,SE,10.4,18.4,N/A,,Clear,140,2011-10-08 16:35:00
11:55 AM,78.8,55.4,44,30.32,10.0,South,9.2,16.1,N/A,,Clear,170,2011-10-08 16:55:00
12:15 PM,78.8,55.4,44,30.31,10.0,SE,10.4,19.6,N/A,,Clear,140,2011-10-08 17:15:00
12:35 PM,78.8,55.4,44,30.31,10.0,SSE,10.4,-,N/A,,Clear,160,2011-10-08 17:35:00
12:55 PM,80.6,57.2,45,30.30,10.0,SSE,6.9,-,N/A,,Clear,160,2011-10-08 17:55:00
1:15 PM,80.6,57.2,45,30.29,10.0,SE,10.4,-,N/A,,Clear,140,2011-10-08 18:15:00
1:35 PM,82.4,57.2,42,30.28,10.0,South,6.9,-,N/A,,Clear,170,2011-10-08 18:35:00
2:15 PM,80.6,55.4,42,30.26,10.0,SE,9.2,-,N/A,,Scattered Clouds,130,2011-10-08 19:15:00
2:35 PM,80.6,55.4,42,30.26,10.0,SE,8.1,-,N/A,,Partly Cloudy,130,2011-10-08 19:35:00
2:55 PM,80.6,55.4,42,30.25,10.0,SSE,8.1,-,N/A,,Partly Cloudy,160,2011-10-08 19:55:00
3:15 PM,80.6,53.6,39,30.25,10.0,South,8.1,-,N/A,,Partly Cloudy,180,2011-10-08 20:15:00
3:35 PM,82.4,53.6,37,30.24,10.0,SE,5.8,-,N/A,,Scattered Clouds,140,2011-10-08 20:35:00
3:55 PM,82.4,53.6,37,30.24,10.0,SE,10.4,19.6,N/A,,Mostly Cloudy,140,2011-10-08 20:55:00
4:15 PM,80.6,53.6,39,30.24,6.0,ESE,8.1,-,N/A,,Partly Cloudy,120,2011-10-08 21:15:00
4:35 PM,80.6,53.6,39,30.23,10.0,ESE,8.1,-,N/A,,Scattered Clouds,120,2011-10-08 21:35:00
4:55 PM,80.6,53.6,39,30.23,5.0,SE,9.2,-,N/A,,Partly Cloudy,130,2011-10-08 21:55:00
5:15 PM,80.6,53.6,39,30.23,10.0,ESE,9.2,-,N/A,,Clear,110,2011-10-08 22:15:00
5:35 PM,78.8,53.6,42,30.23,10.0,ESE,8.1,-,N/A,,Clear,120,2011-10-08 22:35:00
5:55 PM,78.8,53.6,42,30.22,10.0,SE,5.8,-,N/A,,Clear,130,2011-10-08 22:55:00
6:15 PM,77.0,51.8,41,30.22,10.0,ESE,3.5,-,N/A,,Clear,110,2011-10-08 23:15:00
6:35 PM,73.4,51.8,47,30.22,10.0,ESE,4.6,-,N/A,,Clear,110,2011-10-08 23:35:00
6:55 PM,73.4,51.8,47,30.23,10.0,ESE,4.6,-,N/A,,Clear,110,2011-10-08 23:55:00
7:15 PM,71.6,51.8,50,30.23,10.0,East,4.6,-,N/A,,Clear,80,2011-10-09 00:15:00
7:35 PM,69.8,51.8,53,30.23,10.0,East,4.6,-,N/A,,Clear,90,2011-10-09 00:35:00
7:55 PM,69.8,51.8,53,30.23,10.0,East,4.6,-,N/A,,Clear,80,2011-10-09 00:55:00
8:15 PM,68.0,51.8,56,30.24,10.0,East,4.6,-,N/A,,Clear,80,2011-10-09 01:15:00
8:35 PM,68.0,51.8,56,30.24,10.0,East,4.6,-,N/A,,Clear,80,2011-10-09 01:35:00
9:15 PM,66.2,51.8,60,30.25,10.0,East,4.6,-,N/A,,Clear,90,2011-10-09 02:15:00
9:35 PM,66.2,51.8,60,30.25,10.0,East,4.6,-,N/A,,Clear,100,2011-10-09 02:35:00
9:55 PM,66.2,51.8,60,30.25,10.0,East,4.6,-,N/A,,Clear,100,2011-10-09 02:55:00
10:15 PM,66.2,51.8,60,30.25,10.0,East,4.6,-,N/A,,Clear,100,2011-10-09 03:15:00
10:35 PM,66.2,51.8,60,30.26,10.0,East,3.5,-,N/A,,Clear,90,2011-10-09 03:35:00
10:55 PM,64.4,51.8,64,30.26,10.0,East,4.6,-,N/A,,Clear,100,2011-10-09 03:55:00
11:15 PM,64.4,51.8,64,30.26,10.0,East,4.6,-,N/A,,Clear,90,2011-10-09 04:15:00
11:35 PM,62.6,51.8,68,30.27,10.0,East,4.6,-,N/A,,Clear,80,2011-10-09 04:35:00
11:55 PM,62.6,51.8,68,30.27,10.0,East,5.8,-,N/A,,Clear,80,2011-10-09 04:55:00